Location: Bowden
(51.9167°N, 114.0333°W)
Time: 11:02:10
(UTC+00:00)

Envisat - Pass Details

Date: 09 December 2021
Orbit: 764 x 766 km, 98.2° (Epoch: 28 January)

Event Time Altitude Azimuth Distance (km) Brightness Sun altitude
Rises 00:22:01 0° 190° (S) 3,221 6.8 -8.2°
Reaches altitude 10° 00:24:30 10° 200° (SSW) 2,300 6.2 -8.6°
Maximum altitude 00:29:06 34° 265° (W) 1,240 4.9 -9.2°
Drops below altitude 10° 00:33:45 10° 330° (NNW) 2,317 5.6 -9.8°
Sets 00:36:17 0° 340° (NNW) 3,248 6.2 -10.2°
